Location: Daoulas
(48.3609°N, 4.2598°W)
Time: 00:06:50
(UTC+00:00)

Daily predictions for brighter satellites

Satellite Brightness Start Highest point End
(mag) Time Altitude Azimuth Time Altitude Azimuth Time Altitude Azimuth
CENTAUR R/B 4.4 01:53:03 10° NW 01:59:47 33° NNE 02:07:22 10° E
Cosmos 2360 Rocket 4.4 02:09:43 10° N 02:12:08 20° N 02:12:08 20° N
ADEOS II 4.3 02:15:45 10° NNE 02:17:29 21° NNE 02:17:29 21° NNE
Cosmos 2082 Rocket 3.9 02:42:36 27° NNE 02:42:36 27° NNE 02:45:14 10° NNE
Cosmos 2333 Rocket 4.4 02:38:24 10° N 02:42:50 22° NE 02:47:15 10° E
Cosmos 2219 Rocket 4.3 02:53:26 10° N 02:57:55 23° NE 03:02:22 10° E
CZ-2D R/B 4.2 03:05:18 10° N 03:06:50 18° NNW 03:06:50 18° NNW
USA 238 DEB 4.4 03:04:55 10° NW 03:11:58 56° NE 03:19:20 10° ESE
USA 238 4.4 03:05:02 10° NW 03:12:04 56° NE 03:19:26 10° ESE
Cosmos 1745 Rocket 4.4 03:18:37 10° N 03:24:53 62° ENE 03:26:32 47° SE
ARIANE 5 R/B 3.5 03:19:50 10° NNE 03:23:22 44° NE 03:23:22 44° NE
USA 267 3.1 03:29:10 10° NE 03:35:44 87° NNW 03:35:57 84° W
NOSS 3-2 (A) 4.0 03:33:22 10° NW 03:40:49 85° NE 03:49:20 10° SE
Resurs 1-4 Rocket 4.3 03:37:13 10° NNW 03:38:34 15° NNW 03:38:34 15° NNW
Spot 4 Rocket 4.2 03:41:28 10° NNE 03:46:28 68° E 03:46:28 68° E
Cosmos 2344 3.7 03:46:42 49° S 03:48:42 67° SE 03:56:33 10° NE
CENTAUR R/B 3.3 03:43:50 10° NW 03:51:49 75° NE 04:00:41 10° SE
Cosmos 1386 Rocket 4.4 03:45:29 10° N 03:51:55 90° E 03:53:42 51° S
Cosmos 2251 Rocket 4.4 03:53:53 36° SSE 03:55:27 45° ESE 04:00:34 10° NNE
ISS -1.3 04:00:41 22° E 04:00:41 22° E 04:02:05 10° E
Cosmos 2360 Rocket 4.4 03:53:18 10° NNW 04:04:23 11° SSE 04:04:37 10° SSE
ADEOS II 3.8 03:56:01 10° N 03:58:26 21° NNW 03:58:26 21° NNW
IDEFIX/ARIANE 42P 3.4 03:56:53 10° N 04:00:30 38° NNW 04:00:30 38° NNW
ALOS 4.0 03:58:49 10° NNE 04:02:59 31° E 04:07:03 10° SSE
PAYLOAD A 4.4 03:58:03 10° NNE 04:03:23 66° ESE 04:05:04 43° SSE
CZ-2C R/B 3.9 04:01:34 10° NNE 04:04:15 41° NNE 04:04:15 41° NNE
Cosmos 2237 Rocket 4.3 04:01:06 10° N 04:05:44 25° NE 04:10:20 10° E
Cosmos 2333 4.3 04:00:48 10° NNW 04:06:38 80° ENE 04:12:25 10° SSE
USA 234 3.2 04:04:39 10° SE 04:11:03 55° SW 04:11:34 54° WSW
CZ-4C R/B 3.6 04:10:13 20° SSE 04:12:47 31° ESE 04:17:44 10° NE
USA 276 4.2 04:16:02 27° E 04:16:02 27° E 04:17:46 10° E
PSLV R/B 4.2 04:11:27 10° NNE 04:15:46 53° E 04:17:21 34° SSE
Meteor 2-2 Rocket 4.3 04:15:59 56° SW 04:17:09 71° WNW 04:23:12 10° N
Cosmos 1553 Rocket 4.1 04:17:21 50° W 04:17:36 50° WNW 04:23:40 10° N
Lacrosse 5 1.8 04:19:24 65° SSW 04:19:24 65° SSW 04:24:05 10° SE
NOSS 3-2 (C) 4.0 04:15:23 10° NW 04:22:53 88° SW 04:31:25 10° SE
Cosmos 2082 Rocket 4.1 04:24:26 15° NW 04:24:57 15° NW 04:28:17 10° N
MSX 4.1 04:21:30 10° N 04:26:55 44° WNW 04:27:14 44° WNW
Cosmos 2333 Rocket 2.1 04:22:06 10° NNW 04:27:55 89° WSW 04:33:42 10° SSE
Cosmos 2221 3.5 04:30:18 33° NNW 04:30:18 33° NNW 04:33:12 10° N
Cosmos 1484 Rocket 3.9 04:29:08 10° NNE 04:32:41 41° E 04:35:27 15° SSE
Cosmos 1805 Rocket 3.4 04:28:26 10° N 04:32:57 86° W 04:37:24 10° S
ATLAS 2AS CENTAUR R/B 4.3 04:28:53 10° S 04:35:58 38° ESE 04:42:59 10° NE
Landsat 5 3.2 04:33:18 10° SSE 04:37:08 89° ENE 04:41:06 10° NNW
CZ-2C R/B 2.2 04:35:28 10° N 04:40:12 66° WNW 04:41:25 46° SW
Cosmos 2315 Rocket 3.9 04:34:41 13° S 04:40:20 86° W 04:46:35 10° N
CZ-4B R/B 4.2 04:39:16 10° ESE 04:41:29 19° ENE 04:43:42 10° NNE
COSMO-SKYMED 1 4.3 04:38:34 10° SE 04:42:28 34° ENE 04:46:23 10° N
Cosmos 2219 Rocket 2.1 04:36:51 10° NNW 04:42:32 81° WSW 04:48:13 10° SSE
Cosmos 1606 2.7 04:47:57 57° W 04:48:07 58° WNW 04:51:59 10° N
Sich 1 2.9 04:45:09 10° NNW 04:49:35 77° W 04:53:57 10° S
METEOR-M 4.4 04:48:32 10° NNE 04:53:53 70° ESE 04:59:11 10° S
Cosmos 1666 Rocket 3.6 04:52:20 10° N 04:56:45 80° E 05:01:08 10° SSE
Cosmos 2074 Rocket 4.3 04:51:18 10° N 04:57:31 70° E 05:03:41 10° SSE
COSMOS 2428 2.6 04:53:30 10° NNW 04:59:12 72° WSW 05:04:53 10° SSE
BREEZE M DEB (TANK) 1.9 04:59:35 51° WNW 05:00:14 88° NNE 05:05:53 10° ESE
MOS 1 Rocket 3.9 04:57:10 10° SSE 05:01:30 56° ENE 05:06:06 10° N
SeaSat 1 2.8 04:57:14 10° SE 05:02:07 66° ENE 05:07:01 10° NNW
BREEZE-M DEB (TANK) 2.7 05:00:37 32° W 05:02:38 79° N 05:05:14 10° ENE
USA 238 DEB 4.1 04:56:04 10° NW 05:02:55 46° WSW 05:10:01 10° S
USA 238 4.1 04:56:11 10° NW 05:03:02 46° WSW 05:10:08 10° S
ATLAS 5 CENTAUR R/B 2.0 05:00:51 19° SSW 05:03:31 55° SE 05:07:52 10° NE
ARIANE 5 R/B 3.9 04:59:53 10° NNW 05:03:31 20° WNW 05:03:43 20° WNW
CZ-4C R/B 3.2 05:04:28 44° W 05:04:28 44° W 05:07:42 10° NNW
ATLAS 3B R/B 3.5 05:00:03 10° NW 05:06:51 54° NE 05:13:54 10° ESE
CZ-4B R/B 4.4 05:04:54 10° NNE 05:08:32 52° E 05:12:06 10° S
ADEOS 4.0 05:03:58 10° NNE 05:09:11 63° ESE 05:14:21 10° S
Cosmos 1602 3.8 05:06:32 10° N 05:10:29 82° E 05:14:23 10° S
FENGYUN 3A 3.7 05:09:40 10° N 05:15:03 62° WNW 05:20:23 10° SSW
Meteor 1-25 Rocket 4.1 05:12:30 10° NNW 05:18:01 64° W 05:23:29 10° S
USA 267 3.8 05:12:14 10° ENE 05:18:26 47° NNW 05:23:18 17° W
H-2A R/B 2.0 05:14:40 10° S 05:18:48 54° W 05:22:53 10° NNW
Cosmos 2322 4.2 05:14:22 10° NW 05:19:28 35° WSW 05:24:31 10° S
Cosmos 1151 Rocket 3.0 05:15:35 10° S 05:19:53 89° ESE 05:24:13 10° N
Cosmos 909 Rocket 4.0 05:14:58 14° SW 05:20:46 76° NW 05:27:07 10° NE
NOSS 0 Rocket 3.9 05:16:52 10° NNW 05:23:03 80° WSW 05:29:15 10° SSE
COSMOS 2487 3.6 05:23:34 23° WNW 05:23:59 24° WNW 05:26:49 10° N
Cosmos 2184 Rocket 4.0 05:18:08 10° N 05:24:29 81° W 05:30:51 10° S
Cosmos 1633 Rocket 3.0 05:23:28 10° NNW 05:27:50 60° W 05:32:07 10° S
SKYMED 2 3.5 05:26:02 10° SSE 05:30:23 84° WSW 05:34:46 10° NNW
Geosat 4.1 05:27:58 10° NNE 05:32:56 60° NW 05:37:51 10° SW
H-2A R/B 3.9 05:29:51 10° NNE 05:33:39 47° E 05:37:24 10° S
Cosmos 1242 Rocket 4.1 05:31:51 10° SSE 05:35:04 38° E 05:38:21 10° NNE
ISS -3.3 05:33:39 21° W 05:35:35 45° SSW 05:38:48 10° SE
Cosmos 2251 Rocket 4.4 05:34:23 16° WSW 05:37:55 31° NW 05:42:42 10° N
Cosmos 1933 3.9 05:34:26 10° SW 05:38:10 36° WNW 05:41:57 10° N
Cosmos 614 Rocket 4.5 05:34:07 12° SW 05:38:38 41° WNW 05:43:36 10° NNE
Cosmos 1812 3.6 05:36:32 10° S 05:40:16 52° E 05:44:01 10° NNE
ALOS 2.9 05:36:10 10° N 05:40:24 35° WNW 05:44:37 10° SW
CENTAUR R/B 3.7 05:34:57 10° NW 05:42:19 37° WSW 05:50:11 10° S
CZ-2C R/B 4.1 05:37:27 10° SE 05:42:42 43° ENE 05:47:56 10° N
BREEZE-M DEB (TANK) 3.0 05:42:03 15° NW 05:43:28 30° N 05:45:37 10° ENE
Meteor 1-31 Rocket 2.8 05:41:28 10° N 05:45:17 58° WNW 05:49:02 10° SSW
Meteor 1-14 Rocket 4.2 05:40:04 10° NNW 05:45:44 75° W 05:51:30 10° S
CSL-04 DEB 4.4 05:42:39 10° S 05:46:32 57° WSW 05:50:25 10° NNW
Cosmos 1954 Rocket 4.3 05:42:51 10° SSW 05:48:06 74° ESE 05:53:21 10° NNE
RESURS DK-1 3.6 05:44:30 10° S 05:48:26 44° ESE 05:52:22 10° NE
Cosmos 2237 Rocket 2.2 05:44:43 10° NNW 05:50:24 74° WSW 05:56:02 10° SSE
USA 276 2.2 05:48:17 15° W 05:50:50 67° N 05:54:01 10° ENE
Cosmos 407 Rocket 3.7 05:48:57 10° SW 05:53:58 51° WNW 05:59:00 10° NNE
Meteor 1-5 Rocket 4.4 05:52:38 10° NNW 05:58:34 86° WSW 06:04:33 10° S
PSLV R/B 4.0 05:56:34 10° SSE 06:00:45 89° ENE 06:04:55 10° NNW
CZ-4C R/B 2.4 05:55:54 10° WSW 06:00:53 54° NW 06:06:59 10° NE
Lacrosse 5 3.6 05:58:40 10° W 06:01:13 14° WSW 06:03:46 10° SSW
Cosmos 1328 Rocket 3.9 05:58:17 10° SW 06:02:21 41° WNW 06:06:28 10° N
Cosmos 2344 4.3 05:56:46 10° W 06:03:44 40° NNW 06:11:47 10° NE
Cosmos 1515 Rocket 3.5 06:00:12 10° SSW 06:04:31 67° WNW 06:08:55 10° N
SJ-12 4.2 06:00:48 10° N 06:04:40 44° WNW 06:08:31 10° SW
Nadezhda 1 Rocket 4.0 05:59:21 10° SSW 06:05:28 68° WNW 06:11:44 10° N
Cosmos 1190 Rocket 4.2 06:00:31 10° SW 06:05:42 53° WNW 06:10:55 10° NNE
Meteor PRIRODA 3.6 06:02:08 10° N 06:05:52 75° WNW 06:09:35 10° SSW
Cosmos 1484 Rocket 4.2 06:04:16 10° NNW 06:06:48 18° WNW 06:09:20 10° WSW
Cosmos 1666 2.7 06:03:53 10° N 06:07:44 87° E 06:11:34 10° S
Cosmos 2341 Rocket 4.2 06:02:32 10° N 06:08:47 82° E 06:15:01 10° S
Cosmos 1689 Rocket 2.0 06:06:40 10° SSE 06:09:29 84° ENE 06:12:21 10° NNW
Cosmos 2227 Rocket 2.6 06:04:32 10° SSW 06:10:09 70° ESE 06:15:50 10° NNE
Cosmos 1437 Rocket 3.7 06:06:53 10° SW 06:10:28 30° WNW 06:14:02 10° N
NOSS 3-4 (A) 3.6 06:05:29 10° WSW 06:11:18 56° NW 06:17:39 10° NE
Cosmos 2333 Rocket 3.7 06:08:04 10° WNW 06:11:20 16° W 06:14:36 10° SW
NOSS 3-4 (C) 3.6 06:05:35 10° WSW 06:11:24 56° NW 06:17:45 10° NE
CZ-4B R/B 3.2 06:07:05 10° N 06:11:35 67° WNW 06:16:03 10° SSW
SAR-Lupe-1 4.1 06:08:09 10° SSE 06:11:44 90° ESE 06:15:21 10° NNW
Cosmos 1470 Rocket 4.1 06:08:32 10° NNW 06:12:31 36° W 06:16:28 10° SSW
Cosmos 676 Rocket 4.0 06:07:33 10° SSW 06:12:51 73° WNW 06:18:09 10° NNE
CZ-4B R/B 2.2 06:10:57 10° SSW 06:13:32 25° W 06:16:08 10° NW
SL-16 R/B 2.7 06:07:51 10° NNW 06:13:34 67° ENE 06:19:13 10° SE
Cosmos 921 Rocket 4.5 06:11:19 10° N 06:15:37 44° ENE 06:19:56 10° SE
Meteor 1-10 Rocket 4.5 06:11:29 10° S 06:17:23 85° E 06:23:15 10° NNE
CZ-3 R/B 4.0 06:12:48 10° SW 06:21:42 19° SSW 06:26:17 10° SSE
